Time,TemperatureF,DewpointF,PressureIn,WindDirection,WindDirectionDegrees,WindSpeedMPH,WindSpeedGustMPH,Humidity,HourlyPrecipIn,Conditions,Clouds,dailyrainin,SoftwareType,DateUTC
2013-01-21 00:05:00,29.5,13.0,29.86,NW,304,0.0,-999.0,50,-99.99,,,0.00,weatherlink.com 1.10,2013-01-21 05:05:00,
2013-01-21 00:20:00,29.1,14.0,29.86,NW,326,4.0,-999.0,54,-99.99,,,0.00,weatherlink.com 1.10,2013-01-21 05:20:00,
2013-01-21 00:35:00,28.7,15.0,29.87,NNW,328,1.0,-999.0,57,-99.99,,,0.00,weatherlink.com 1.10,2013-01-21 05:35:00,
2013-01-21 00:50:00,28.4,15.0,29.87,WNW,294,2.0,-999.0,57,-99.99,,,0.00,weatherlink.com 1.10,2013-01-21 05:50:00,
2013-01-21 01:05:00,28.2,14.0,29.88,NNW,327,2.0,-999.0,55,-99.99,,,0.00,weatherlink.com 1.10,2013-01-21 06:05:00,
2013-01-21 01:20:00,28.0,14.0,29.89,West,273,2.0,-999.0,55,-99.99,,,0.00,weatherlink.com 1.10,2013-01-21 06:20:00,
2013-01-21 01:35:00,27.8,12.0,29.90,NNW,347,7.0,-999.0,52,-99.99,,,0.00,weatherlink.com 1.10,2013-01-21 06:35:00,
2013-01-21 01:50:00,27.7,10.0,29.91,NW,311,7.0,-999.0,48,-99.99,,,0.00,weatherlink.com 1.10,2013-01-21 06:50:00,
2013-01-21 02:05:00,27.4,10.0,29.92,NNW,342,9.0,-999.0,48,-99.99,,,0.00,weatherlink.com 1.10,2013-01-21 07:05:00,
2013-01-21 02:20:00,27.2,10.0,29.93,NNW,332,2.0,-999.0,49,-99.99,,,0.00,weatherlink.com 1.10,2013-01-21 07:20:00,
2013-01-21 02:35:00,26.8,11.0,29.94,NNW,336,6.0,-999.0,51,-99.99,,,0.00,weatherlink.com 1.10,2013-01-21 07:35:00,
2013-01-21 02:50:00,26.5,11.0,29.94,NNW,342,6.0,-999.0,52,-99.99,,,0.00,weatherlink.com 1.10,2013-01-21 07:50:00,
2013-01-21 03:05:00,26.0,9.0,29.95,NE,50,5.0,-999.0,49,-99.99,,,0.00,weatherlink.com 1.10,2013-01-21 08:05:00,
2013-01-21 03:20:00,25.6,8.0,29.94,NW,305,4.0,-999.0,47,-99.99,,,0.00,weatherlink.com 1.10,2013-01-21 08:20:00,
2013-01-21 03:35:00,25.4,8.0,29.95,NNW,344,3.0,-999.0,47,-99.99,,,0.00,weatherlink.com 1.10,2013-01-21 08:35:00,
2013-01-21 03:50:00,25.0,7.0,29.95,NW,309,1.0,-999.0,47,-99.99,,,0.00,weatherlink.com 1.10,2013-01-21 08:50:00,
2013-01-21 04:05:00,24.8,7.0,29.96,WNW,290,1.0,-999.0,46,-99.99,,,0.00,weatherlink.com 1.10,2013-01-21 09:05:00,
2013-01-21 04:20:00,24.5,5.0,29.96,WNW,302,2.0,-999.0,44,-99.99,,,0.00,weatherlink.com 1.10,2013-01-21 09:20:00,
2013-01-21 04:35:00,24.3,5.0,29.96,NNW,334,6.0,-999.0,43,-99.99,,,0.00,weatherlink.com 1.10,2013-01-21 09:35:00,
2013-01-21 04:50:00,24.1,4.0,29.97,WNW,284,4.0,-999.0,42,-99.99,,,0.00,weatherlink.com 1.10,2013-01-21 09:50:00,
2013-01-21 05:05:00,23.8,5.0,29.98,WNW,301,0.0,-999.0,44,-99.99,,,0.00,weatherlink.com 1.10,2013-01-21 10:05:00,
2013-01-21 05:20:00,23.4,4.0,29.98,NW,304,1.0,-999.0,44,-99.99,,,0.00,weatherlink.com 1.10,2013-01-21 10:20:00,
2013-01-21 05:35:00,23.1,5.0,29.98,NW,314,0.0,-999.0,45,-99.99,,,0.00,weatherlink.com 1.10,2013-01-21 10:35:00,
2013-01-21 05:50:00,22.8,4.0,29.99,NNW,331,0.0,-999.0,45,-99.99,,,0.00,weatherlink.com 1.10,2013-01-21 10:50:00,
2013-01-21 06:04:00,22.5,4.0,29.99,West,266,0.0,-999.0,46,-99.99,,,0.00,weatherlink.com 1.10,2013-01-21 11:04:00,
2013-01-21 06:19:00,22.3,5.0,30.00,SW,230,0.0,-999.0,48,-99.99,,,0.00,weatherlink.com 1.10,2013-01-21 11:19:00,
2013-01-21 06:34:00,22.1,6.0,30.00,WNW,294,1.0,-999.0,50,-99.99,,,0.00,weatherlink.com 1.10,2013-01-21 11:34:00,
2013-01-21 06:49:00,22.1,8.0,30.01,WNW,300,0.0,-999.0,54,-99.99,,,0.00,weatherlink.com 1.10,2013-01-21 11:49:00,
2013-01-21 07:04:00,22.0,8.0,30.01,WNW,288,0.0,-999.0,54,-99.99,,,0.00,weatherlink.com 1.10,2013-01-21 12:04:00,
2013-01-21 07:19:00,21.9,7.0,30.00,NNW,329,0.0,-999.0,52,-99.99,,,0.00,weatherlink.com 1.10,2013-01-21 12:19:00,
2013-01-21 07:34:00,22.0,7.0,30.01,WNW,292,0.0,-999.0,53,-99.99,,,0.00,weatherlink.com 1.10,2013-01-21 12:34:00,
2013-01-21 07:49:00,22.1,7.0,30.01,WNW,294,2.0,-999.0,52,-99.99,,,0.00,weatherlink.com 1.10,2013-01-21 12:49:00,
2013-01-21 08:04:00,22.3,7.0,30.02,NW,319,0.0,-999.0,51,-99.99,,,0.00,weatherlink.com 1.10,2013-01-21 13:04:00,
2013-01-21 08:19:00,22.6,6.0,30.02,West,262,0.0,-999.0,50,-99.99,,,0.00,weatherlink.com 1.10,2013-01-21 13:19:00,
2013-01-21 08:34:00,23.0,7.0,30.02,WNW,290,0.0,-999.0,50,-99.99,,,0.00,weatherlink.com 1.10,2013-01-21 13:34:00,
2013-01-21 08:49:00,23.4,7.0,30.02,West,269,3.0,-999.0,49,-99.99,,,0.00,weatherlink.com 1.10,2013-01-21 13:49:00,
2013-01-21 09:04:00,24.0,7.0,30.03,West,279,2.0,-999.0,48,-99.99,,,0.00,weatherlink.com 1.10,2013-01-21 14:04:00,
2013-01-21 09:19:00,24.2,7.0,30.04,NNW,334,1.0,-999.0,47,-99.99,,,0.00,weatherlink.com 1.10,2013-01-21 14:19:00,
2013-01-21 09:34:00,25.2,7.0,30.04,West,268,1.0,-999.0,45,-99.99,,,0.00,weatherlink.com 1.10,2013-01-21 14:34:00,
2013-01-21 09:49:00,25.4,6.0,30.04,SW,219,3.0,-999.0,44,-99.99,,,0.00,weatherlink.com 1.10,2013-01-21 14:49:00,
2013-01-21 10:04:00,25.3,6.0,30.04,WNW,295,1.0,-999.0,44,-99.99,,,0.00,weatherlink.com 1.10,2013-01-21 15:04:00,
2013-01-21 10:19:00,25.4,6.0,30.04,NNW,332,4.0,-999.0,43,-99.99,,,0.00,weatherlink.com 1.10,2013-01-21 15:19:00,
2013-01-21 10:34:00,25.7,6.0,30.03,West,274,2.0,-999.0,43,-99.99,,,0.00,weatherlink.com 1.10,2013-01-21 15:34:00,
2013-01-21 10:49:00,26.1,6.0,30.02,West,265,0.0,-999.0,43,-99.99,,,0.00,weatherlink.com 1.10,2013-01-21 15:49:00,
2013-01-21 11:04:00,26.7,6.0,30.01,NW,326,0.0,-999.0,42,-99.99,,,0.00,weatherlink.com 1.10,2013-01-21 16:04:00,
2013-01-21 11:19:00,27.1,6.0,30.00,NNW,329,4.0,-999.0,41,-99.99,,,0.00,weatherlink.com 1.10,2013-01-21 16:19:00,
2013-01-21 11:34:00,27.3,6.0,29.99,West,266,4.0,-999.0,41,-99.99,,,0.00,weatherlink.com 1.10,2013-01-21 16:34:00,
2013-01-21 11:53:00,27.4,6.0,29.98,WNW,286,4.0,-999.0,41,-99.99,,,0.00,weatherlink.com 1.10,2013-01-21 16:53:00,
2013-01-21 12:05:00,27.7,7.0,29.98,NW,305,4.0,-999.0,41,-99.99,,,0.00,weatherlink.com 1.10,2013-01-21 17:05:00,
2013-01-21 12:20:00,28.0,7.0,29.96,West,265,4.0,-999.0,41,-99.99,,,0.00,weatherlink.com 1.10,2013-01-21 17:20:00,
2013-01-21 12:35:00,28.1,7.0,29.95,NNW,332,0.0,-999.0,41,-99.99,,,0.00,weatherlink.com 1.10,2013-01-21 17:35:00,
2013-01-21 12:50:00,29.5,7.0,29.95,West,280,6.0,-999.0,39,-99.99,,,0.00,weatherlink.com 1.10,2013-01-21 17:50:00,
2013-01-21 13:05:00,30.1,8.0,29.94,WNW,302,0.0,-999.0,39,-99.99,,,0.00,weatherlink.com 1.10,2013-01-21 18:05:00,
2013-01-21 13:20:00,30.1,7.0,29.94,SW,215,0.0,-999.0,37,-99.99,,,0.00,weatherlink.com 1.10,2013-01-21 18:20:00,
2013-01-21 13:35:00,29.4,7.0,29.93,SSW,200,0.0,-999.0,38,-99.99,,,0.00,weatherlink.com 1.10,2013-01-21 18:35:00,
2013-01-21 13:50:00,29.0,7.0,29.93,WSW,240,3.0,-999.0,40,-99.99,,,0.00,weatherlink.com 1.10,2013-01-21 18:50:00,
2013-01-21 14:05:00,29.2,7.0,29.92,WSW,258,0.0,-999.0,39,-99.99,,,0.00,weatherlink.com 1.10,2013-01-21 19:05:00,
2013-01-21 14:20:00,28.8,7.0,29.93,West,259,2.0,-999.0,39,-99.99,,,0.00,weatherlink.com 1.10,2013-01-21 19:20:00,
2013-01-21 14:35:00,28.8,8.0,29.92,SSW,202,1.0,-999.0,41,-99.99,,,0.00,weatherlink.com 1.10,2013-01-21 19:35:00,
2013-01-21 14:50:00,28.9,7.0,29.92,SW,216,0.0,-999.0,40,-99.99,,,0.00,weatherlink.com 1.10,2013-01-21 19:50:00,
2013-01-21 15:05:00,28.8,8.0,29.92,SSW,196,2.0,-999.0,41,-99.99,,,0.00,weatherlink.com 1.10,2013-01-21 20:05:00,
2013-01-21 15:20:00,28.6,8.0,29.91,West,266,0.0,-999.0,41,-99.99,,,0.00,weatherlink.com 1.10,2013-01-21 20:20:00,
2013-01-21 15:35:00,28.5,9.0,29.91,NW,321,0.0,-999.0,44,-99.99,,,0.00,weatherlink.com 1.10,2013-01-21 20:35:00,
2013-01-21 15:50:00,28.4,8.0,29.90,NW,315,1.0,-999.0,43,-99.99,,,0.00,weatherlink.com 1.10,2013-01-21 20:50:00,
2013-01-21 16:05:00,28.1,9.0,29.90,West,268,3.0,-999.0,45,-99.99,,,0.00,weatherlink.com 1.10,2013-01-21 21:05:00,
2013-01-21 16:20:00,27.9,9.0,29.89,WNW,296,0.0,-999.0,45,-99.99,,,0.00,weatherlink.com 1.10,2013-01-21 21:20:00,
2013-01-21 16:35:00,27.9,11.0,29.89,SSW,201,2.0,-999.0,49,-99.99,,,0.00,weatherlink.com 1.10,2013-01-21 21:35:00,
2013-01-21 16:50:00,27.7,11.0,29.89,South,181,0.0,-999.0,50,-99.99,,,0.00,weatherlink.com 1.10,2013-01-21 21:50:00,
2013-01-21 17:05:00,27.6,12.0,29.88,WNW,294,0.0,-999.0,52,-99.99,,,0.00,weatherlink.com 1.10,2013-01-21 22:05:00,
2013-01-21 17:20:00,27.4,12.0,29.88,WSW,250,0.0,-999.0,53,-99.99,,,0.00,weatherlink.com 1.10,2013-01-21 22:20:00,
2013-01-21 17:35:00,27.2,13.0,29.88,NW,313,4.0,-999.0,56,-99.99,,,0.00,weatherlink.com 1.10,2013-01-21 22:35:00,
2013-01-21 17:50:00,26.9,15.0,29.88,West,267,3.0,-999.0,60,-99.99,,,0.00,weatherlink.com 1.10,2013-01-21 22:50:00,
2013-01-21 18:05:00,26.5,16.0,29.89,NNW,346,2.0,-999.0,65,-99.99,,,0.00,weatherlink.com 1.10,2013-01-21 23:05:00,
2013-01-21 18:20:00,25.7,18.0,29.89,NW,325,0.0,-999.0,73,-99.99,,,0.00,weatherlink.com 1.10,2013-01-21 23:20:00,
2013-01-21 18:35:00,25.4,19.0,29.89,NW,325,1.0,-999.0,76,-99.99,,,0.00,weatherlink.com 1.10,2013-01-21 23:35:00,
2013-01-21 18:50:00,24.9,20.0,29.89,NW,323,0.0,-999.0,81,-99.99,,,0.00,weatherlink.com 1.10,2013-01-21 23:50:00,
2013-01-21 19:05:00,24.7,20.0,29.88,NNW,334,3.0,-999.0,83,-99.99,,,0.00,weatherlink.com 1.10,2013-01-22 00:05:00,
2013-01-21 19:20:00,24.3,21.0,29.88,NW,317,1.0,-999.0,86,-99.99,,,0.00,weatherlink.com 1.10,2013-01-22 00:20:00,
2013-01-21 19:35:00,24.2,21.0,29.88,NW,317,0.0,-999.0,87,-99.99,,,0.00,weatherlink.com 1.10,2013-01-22 00:35:00,
2013-01-21 19:50:00,24.1,21.0,29.87,NW,317,0.0,-999.0,87,-99.99,,,0.00,weatherlink.com 1.10,2013-01-22 00:50:00,
2013-01-21 20:05:00,24.2,21.0,29.86,NW,317,0.0,-999.0,88,-99.99,,,0.00,weatherlink.com 1.10,2013-01-22 01:05:00,
2013-01-21 20:20:00,24.2,22.0,29.86,NW,317,1.0,-999.0,89,-99.99,,,0.00,weatherlink.com 1.10,2013-01-22 01:20:00,
2013-01-21 20:35:00,24.0,21.0,29.86,NW,317,0.0,-999.0,89,-99.99,,,0.00,weatherlink.com 1.10,2013-01-22 01:35:00,
2013-01-21 20:50:00,24.0,21.0,29.86,NW,317,0.0,-999.0,89,-99.99,,,0.00,weatherlink.com 1.10,2013-01-22 01:50:00,
2013-01-21 21:05:00,24.0,21.0,29.85,NNW,329,0.0,-999.0,89,-99.99,,,0.00,weatherlink.com 1.10,2013-01-22 02:05:00,
2013-01-21 21:20:00,23.9,21.0,29.83,NNW,329,0.0,-999.0,89,-99.99,,,0.00,weatherlink.com 1.10,2013-01-22 02:20:00,
2013-01-21 21:35:00,23.8,21.0,29.83,NE,45,0.0,-999.0,89,-99.99,,,0.00,weatherlink.com 1.10,2013-01-22 02:35:00,
2013-01-21 21:50:00,23.7,21.0,29.82,NE,45,0.0,-999.0,89,-99.99,,,0.00,weatherlink.com 1.10,2013-01-22 02:50:00,
2013-01-21 22:05:00,23.6,21.0,29.82,NE,45,0.0,-999.0,89,-99.99,,,0.00,weatherlink.com 1.10,2013-01-22 03:05:00,
2013-01-21 22:20:00,23.5,21.0,29.81,NE,44,0.0,-999.0,89,-99.99,,,0.00,weatherlink.com 1.10,2013-01-22 03:20:00,
2013-01-21 22:35:00,23.5,21.0,29.80,NE,44,0.0,-999.0,89,-99.99,,,0.00,weatherlink.com 1.10,2013-01-22 03:35:00,
2013-01-21 22:50:00,23.4,21.0,29.79,NE,44,0.0,-999.0,89,-99.99,,,0.00,weatherlink.com 1.10,2013-01-22 03:50:00,
2013-01-21 23:05:00,23.4,21.0,29.77,NE,44,0.0,-999.0,89,-99.99,,,0.00,weatherlink.com 1.10,2013-01-22 04:05:00,
2013-01-21 23:20:00,23.4,21.0,29.77,NE,42,0.0,-999.0,89,-99.99,,,0.00,weatherlink.com 1.10,2013-01-22 04:20:00,
2013-01-21 23:35:00,23.3,21.0,29.75,NNE,29,0.0,-999.0,89,-99.99,,,0.00,weatherlink.com 1.10,2013-01-22 04:35:00,
2013-01-21 23:50:00,23.3,21.0,29.74,NNE,26,0.0,-999.0,89,-99.99,,,0.00,weatherlink.com 1.10,2013-01-22 04:50:00,